• en Belgique
  • Liste des pays
  • À 7 jours
  • Température de l'eau
  • Carte satellitaire
  • Carte météo
  • Widgets météo
  • user-avatar
    Se connecter

    Météo par heure à Varna

    Ce jour, 22 Octobre, Lundi

    Heure Température Précipitation Vent Pression Humidité
    00:00 +12°C° 0 mm 4 m/s 750 mmHg 78%
    01:00 +12°C° 0 mm 5 m/s 750 mmHg 77%
    02:00 +10°C° 0 mm 5 m/s 750 mmHg 75%
    03:00 +10°C° 0 mm 5 m/s 750 mmHg 75%
    04:00 +9°C° 0 mm 5 m/s 750 mmHg 75%
    05:00 +9°C° 0 mm 5 m/s 750 mmHg 75%
    06:00 +9°C° 0 mm 5 m/s 751 mmHg 73%
    07:00 +9°C° 0 mm 5 m/s 751 mmHg 71%
    08:00 +10°C° 0 mm 6 m/s 751 mmHg 68%
    09:00 +11°C° 0 mm 6 m/s 751 mmHg 64%
    10:00 +14°C° 0 mm 6 m/s 751 mmHg 59%
    11:00 +15°C° 0 mm 5 m/s 751 mmHg 54%
    12:00 +16°C° 0 mm 5 m/s 751 mmHg 51%
    13:00 +16°C° 0 mm 5 m/s 751 mmHg 49%
    14:00 +17°C° 0 mm 5 m/s 751 mmHg 46%
    15:00 +17°C° 0 mm 4 m/s 750 mmHg 49%
    16:00 +15°C° 0 mm 4 m/s 750 mmHg 51%
    17:00 +16°C° 0 mm 3 m/s 750 mmHg 54%
    18:00 +14°C° 0 mm 3 m/s 750 mmHg 57%
    19:00 +13°C° 0 mm 3 m/s 750 mmHg 61%
    20:00 +13°C° 0 mm 2 m/s 750 mmHg 64%
    21:00 +12°C° 0 mm 2 m/s 750 mmHg 65%
    22:00 +12°C° 0 mm 2 m/s 750 mmHg 66%
    23:00 +12°C° 0 mm 2 m/s 750 mmHg 66%

    Demain, 23 Octobre, Mardi

    Heure Température Précipitation Vent Pression Humidité
    00:00 +10°C° 0 mm 2 m/s 750 mmHg 65%
    01:00 +10°C° 0 mm 3 m/s 750 mmHg 64%
    02:00 +10°C° 0 mm 3 m/s 750 mmHg 63%
    03:00 +10°C° 0 mm 3 m/s 750 mmHg 63%
    04:00 +9°C° 0 mm 3 m/s 749 mmHg 62%
    05:00 +9°C° 0 mm 3 m/s 749 mmHg 61%
    06:00 +10°C° 0 mm 3 m/s 749 mmHg 59%
    07:00 +10°C° 0 mm 2 m/s 749 mmHg 57%
    08:00 +12°C° 0 mm 2 m/s 750 mmHg 54%
    09:00 +13°C° 0 mm 2 m/s 750 mmHg 49%
    10:00 +15°C° 0 mm 2 m/s 750 mmHg 45%
    11:00 +17°C° 0 mm 2 m/s 750 mmHg 40%
    12:00 +17°C° 0 mm 2 m/s 749 mmHg 39%
    13:00 +18°C° 0 mm 2 m/s 749 mmHg 38%
    14:00 +20°C° 0 mm 1 m/s 748 mmHg 37%
    15:00 +19°C° 0 mm 1 m/s 748 mmHg 40%
    16:00 +17°C° 0 mm 2 m/s 747 mmHg 44%
    17:00 +16°C° 0 mm 2 m/s 747 mmHg 48%
    18:00 +15°C° 0 mm 2 m/s 747 mmHg 51%
    19:00 +14°C° 0 mm 2 m/s 746 mmHg 55%
    20:00 +12°C° 0 mm 3 m/s 746 mmHg 58%
    21:00 +12°C° 0 mm 3 m/s 746 mmHg 59%
    22:00 +12°C° 0 mm 3 m/s 746 mmHg 59%
    23:00 +11°C° 0 mm 3 m/s 745 mmHg 60%

    Après-demain, 24 Octobre, Mercredi

    Heure Température Précipitation Vent Pression Humidité
    00:00 +11°C° 0 mm 4 m/s 745 mmHg 59%
    01:00 +11°C° 0 mm 4 m/s 744 mmHg 57%
    02:00 +10°C° 0 mm 5 m/s 743 mmHg 56%
    03:00 +10°C° 0 mm 5 m/s 743 mmHg 59%
    04:00 +10°C° 0 mm 6 m/s 742 mmHg 62%
    05:00 +10°C° 0 mm 7 m/s 741 mmHg 65%
    06:00 +10°C° 0 mm 7 m/s 741 mmHg 63%
    07:00 +10°C° 0 mm 8 m/s 741 mmHg 61%
    08:00 +11°C° 0 mm 9 m/s 740 mmHg 59%
    09:00 +13°C° 0 mm 9 m/s 740 mmHg 53%
    10:00 +14°C° 0 mm 10 m/s 739 mmHg 48%
    11:00 +17°C° 0 mm 10 m/s 738 mmHg 42%
    12:00 +17°C° 0 mm 10 m/s 737 mmHg 42%
    13:00 +18°C° 0 mm 11 m/s 736 mmHg 41%
    14:00 +18°C° 0 mm 11 m/s 736 mmHg 40%
    15:00 +18°C° 0 mm 10 m/s 735 mmHg 40%
    16:00 +17°C° 0 mm 10 m/s 735 mmHg 40%
    17:00 +17°C° 0 mm 9 m/s 735 mmHg 40%
    18:00 +15°C° 0.1 mm 9 m/s 735 mmHg 44%
    19:00 +12°C° 0.1 mm 10 m/s 736 mmHg 48%
    20:00 +11°C° 0.1 mm 10 m/s 737 mmHg 52%
    21:00 +10°C° 0.1 mm 9 m/s 737 mmHg 48%
    22:00 +8°C° 0.1 mm 9 m/s 738 mmHg 43%
    23:00 +7°C° 0.1 mm 8 m/s 739 mmHg 38%

    25 Octobre, Jeudi

    Heure Température Précipitation Vent Pression Humidité
    00:00 +6°C° 0 mm 7 m/s 739 mmHg 41%
    01:00 +6°C° 0 mm 7 m/s 739 mmHg 44%
    02:00 +5°C° 0 mm 7 m/s 740 mmHg 46%
    03:00 +5°C° 0 mm 7 m/s 740 mmHg 46%
    04:00 +5°C° 0 mm 8 m/s 740 mmHg 45%
    05:00 +5°C° 0 mm 9 m/s 740 mmHg 45%
    06:00 +5°C° 0 mm 10 m/s 740 mmHg 45%
    07:00 +5°C° 0 mm 10 m/s 741 mmHg 44%
    08:00 +4°C° 0 mm 11 m/s 741 mmHg 43%
    09:00 +7°C° 0 mm 10 m/s 742 mmHg 41%
    10:00 +8°C° 0 mm 10 m/s 742 mmHg 38%
    11:00 +9°C° 0 mm 10 m/s 742 mmHg 35%
    12:00 +10°C° 0 mm 9 m/s 742 mmHg 33%
    13:00 +11°C° 0 mm 9 m/s 742 mmHg 31%
    14:00 +12°C° 0 mm 8 m/s 742 mmHg 30%
    15:00 +11°C° 0 mm 8 m/s 742 mmHg 31%
    16:00 +11°C° 0 mm 7 m/s 742 mmHg 32%
    17:00 +10°C° 0 mm 7 m/s 742 mmHg 33%
    18:00 +10°C° 0 mm 6 m/s 742 mmHg 37%
    19:00 +9°C° 0 mm 6 m/s 742 mmHg 40%
    20:00 +9°C° 0 mm 6 m/s 742 mmHg 44%
    21:00 +9°C° 0 mm 6 m/s 742 mmHg 51%
    22:00 +9°C° 0 mm 7 m/s 742 mmHg 58%
    23:00 +9°C° 0 mm 7 m/s 742 mmHg 66%

    26 Octobre, Vendredi

    Heure Température Précipitation Vent Pression Humidité
    00:00 +9°C° 0 mm 7 m/s 742 mmHg 67%
    01:00 +9°C° 0 mm 7 m/s 742 mmHg 69%
    02:00 +9°C° 0 mm 8 m/s 742 mmHg 70%
    03:00 +9°C° 0 mm 7 m/s 742 mmHg 71%
    04:00 +9°C° 0 mm 7 m/s 743 mmHg 71%
    05:00 +9°C° 0 mm 7 m/s 743 mmHg 72%
    06:00 +9°C° 0 mm 6 m/s 744 mmHg 70%
    07:00 +9°C° 0 mm 6 m/s 745 mmHg 69%
    08:00 +9°C° 0 mm 5 m/s 745 mmHg 67%
    09:00 +12°C° 0 mm 5 m/s 746 mmHg 60%
    10:00 +13°C° 0 mm 4 m/s 746 mmHg 52%
    11:00 +16°C° 0 mm 3 m/s 747 mmHg 45%
    12:00 +16°C° 0 mm 3 m/s 747 mmHg 43%
    13:00 +17°C° 0 mm 3 m/s 747 mmHg 42%
    14:00 +18°C° 0 mm 2 m/s 747 mmHg 40%
    15:00 +17°C° 0 mm 3 m/s 747 mmHg 44%
    16:00 +16°C° 0 mm 3 m/s 747 mmHg 48%
    17:00 +14°C° 0 mm 4 m/s 747 mmHg 52%
    18:00 +13°C° 0 mm 4 m/s 747 mmHg 57%
    19:00 +13°C° 0 mm 5 m/s 748 mmHg 63%
    20:00 +12°C° 0 mm 5 m/s 748 mmHg 69%
    21:00 +12°C° 0 mm 5 m/s 748 mmHg 71%
    22:00 +12°C° 0 mm 5 m/s 748 mmHg 74%
    23:00 +12°C° 0 mm 5 m/s 748 mmHg 76%

    27 Octobre, Samedi

    Heure Température Précipitation Vent Pression Humidité
    00:00 +10°C° 0 mm 5 m/s 748 mmHg 76%
    01:00 +11°C° 0 mm 4 m/s 748 mmHg 75%
    02:00 +11°C° 0 mm 4 m/s 748 mmHg 74%
    03:00 +11°C° 0 mm 4 m/s 748 mmHg 77%
    04:00 +10°C° 0 mm 5 m/s 748 mmHg 79%
    05:00 +10°C° 0 mm 5 m/s 747 mmHg 82%
    06:00 +10°C° 0 mm 5 m/s 748 mmHg 81%
    07:00 +12°C° 0 mm 5 m/s 748 mmHg 81%
    08:00 +12°C° 0 mm 5 m/s 748 mmHg 80%
    09:00 +14°C° 0 mm 5 m/s 748 mmHg 72%
    10:00 +16°C° 0 mm 6 m/s 748 mmHg 63%
    11:00 +20°C° 0 mm 6 m/s 748 mmHg 54%
    12:00 +20°C° 0 mm 6 m/s 747 mmHg 51%
    13:00 +21°C° 0 mm 6 m/s 747 mmHg 48%
    14:00 +22°C° 0 mm 7 m/s 747 mmHg 45%
    15:00 +21°C° 0 mm 6 m/s 746 mmHg 49%
    16:00 +20°C° 0 mm 6 m/s 746 mmHg 53%
    17:00 +20°C° 0 mm 6 m/s 746 mmHg 57%
    18:00 +19°C° 0 mm 6 m/s 746 mmHg 61%
    19:00 +17°C° 0 mm 6 m/s 746 mmHg 65%
    20:00 +17°C° 0 mm 6 m/s 746 mmHg 68%
    21:00 +16°C° 0 mm 6 m/s 746 mmHg 72%
    22:00 +16°C° 0 mm 6 m/s 746 mmHg 77%
    23:00 +15°C° 0 mm 6 m/s 746 mmHg 81%

    28 Octobre, Dimanche

    Heure Température Précipitation Vent Pression Humidité
    00:00 +15°C° 0 mm 6 m/s 746 mmHg 82%
    01:00 +15°C° 0 mm 6 m/s 746 mmHg 84%
    02:00 +15°C° 0 mm 6 m/s 746 mmHg 86%
    03:00 +15°C° 0 mm 6 m/s 746 mmHg 86%
    04:00 +15°C° 0 mm 7 m/s 746 mmHg 87%
    05:00 +15°C° 0 mm 7 m/s 746 mmHg 87%
    06:00 +15°C° 0 mm 7 m/s 746 mmHg 86%
    07:00 +15°C° 0 mm 7 m/s 746 mmHg 84%
    08:00 +16°C° 0 mm 7 m/s 747 mmHg 82%
    09:00 +17°C° 0 mm 8 m/s 747 mmHg 74%
    10:00 +20°C° 0 mm 8 m/s 747 mmHg 66%
    11:00 +22°C° 0 mm 8 m/s 747 mmHg 58%
    12:00 +23°C° 0 mm 8 m/s 747 mmHg 55%
    13:00 +23°C° 0 mm 8 m/s 746 mmHg 51%
    14:00 +24°C° 0 mm 8 m/s 746 mmHg 48%
    15:00 +23°C° 0 mm 8 m/s 746 mmHg 50%
    16:00 +22°C° 0 mm 8 m/s 746 mmHg 53%
    17:00 +21°C° 0 mm 7 m/s 746 mmHg 55%
    18:00 +20°C° 0 mm 7 m/s 746 mmHg 58%
    19:00 +20°C° 0 mm 7 m/s 746 mmHg 61%
    20:00 +18°C° 0 mm 7 m/s 746 mmHg 63%
    21:00 +17°C° 0 mm 7 m/s 747 mmHg 65%
    22:00 +17°C° 0 mm 7 m/s 747 mmHg 67%
    23:00 +17°C° 0 mm 7 m/s 747 mmHg 68%
    Voir plus